Regional Weather Roundup
Issued by NWS Binghamton, NY

Current Version | Previous Version | Text Only | Print | Product List | Glossary On
Versions: 1 2 3 4 5 6 7 8 9 10 11 12 13 14 15 16 17 18 19 20 21 22 23 24 25 26 27 28 29 30 31 32 33 34 35 36 37 38 39 40 41 42 43 44 45 46 47 48 49 50
000
ASUS41 KBGM 310910
RWRBGM
RWRBGM
BINGHAMTON REGIONAL WEATHER ROUNDUP
NATIONAL WEATHER SERVICE BINGHAMTON NY
500 AM EDT MON AUG 31 2015

Note: "fair" indicates few or no clouds below 12,000 feet with no
significant weather and/or obstructions to visibility.

* = Station(s) that does not report precipitation, such as rain,
snow, etc, also no thunder or fog.

!NYZ009-015>018-022>025-036-037-044>046-055>057-062-311000
...CENTRAL NEW YORK...

CITY           SKY/WX    TMP DP  RH WIND       PRES   REMARKS
BINGHAMTON     PTCLDY    64  64 100 MISG      30.06F FOG
CORTLAND       FOG       61  61 100 CALM      30.06F VSB 1/4
DANSVILLE      PTCLDY    65  63  93 SE7       30.04S
ELMIRA         FOG       65  65 100 W3        30.05S VSB 1/4
ITHACA         CLEAR     62  62 100 CALM      30.06S FOG
HORNELL        MOCLDY    61  59  94 S5        30.10S FOG
MONTICELLO     PTCLDY    64  64 100 W3        30.08S
NORWICH        FOG       61  61 100 CALM      30.06F VSB 1/4
ONEONTA        MOCLDY    63  63 100 W3        30.07F FOG
PENN YAN       PTCLDY    67  65  93 SW6       30.04S FOG
ROME           CLEAR     60  59  96 CALM      30.02S
SIDNEY         FOG       63  63 100 CALM      30.06S VSB 1/4
SYRACUSE       CLEAR     63  62  97 CALM      30.00S
$$

!PAZ038>040-043-044-047-048-072-311000
...NORTHEAST PENNSYLVANIA...

CITY           SKY/WX    TMP DP  RH WIND       PRES   REMARKS
HAZLETON       FOG       63  63 100 CALM      30.13R VSB 1/4
SCRANTON       PTCLDY    68  64  87 CALM      30.06R
TOWANDA*       PTCLDY    63  63 100 MISG      30.07S VSB 1/4
$$
&&
KEY
WCI = WIND CHILL INDEX
VSB = VISIBILITY
HX  = HEAT INDEX
$$


USA.gov is the U.S. government's official web portal to all federal, state and local government web resources and services.